Regional Weather Roundup
Issued by NWS Albany, NY

Home | Current Version | Previous Version | Graphics & Text | Print | Product List | Glossary Off
Versions: 1 2 3 4 5 6 7 8 9 10 11 12 13 14 15 16 17 18 19 20 21 22 23 24 25 26 27

000
ASUS41 KALY 031310
RWRALY

NEW YORK STATE HOURLY WEATHER ROUNDUP
NATIONAL WEATHER SERVICE ALBANY NY
800 AM EST SAT DEC 03 2016

NOTE: "FAIR" INDICATES FEW OR NO CLOUDS BELOW 12,000 FEET WITH NO
SIGNIFICANT WEATHER AND/OR NO OBSTRUCTIONS TO VISIBILITY.

NYZ032-033-038>043-046>054-057>066-NYZ062>081-082-084-031400-
EAST


CITY           SKY/WX    TMP DP  RH WIND       PRES   REMARKS
ALBANY         MOCLDY    37  27  67 NW20G29   29.97R WCI  27
GLENS FALLS    CLOUDY    39  25  57 NW7       29.94R WCI  34
POUGHKEEPSIE   CLOUDY    40  27  59 VRB6      29.98R
NEWBURGH       MOCLDY    39  30  70 NW12G23   29.99R WCI  32
MONTGOMERY     CLEAR     40  27  59 W23G31    29.96R WCI  30
WHITE PLAINS   MOCLDY    41  27  57 NW20G25   29.97R
ISLIP          PTCLDY    42  28  57 W14G24    29.96R
NEW YORK CITY  PTCLDY    44  28  53 NW21      30.01R
CENTRAL PARK   MOCLDY    42  25  50 VRB5G18   30.03R
$$

NYZ005>009-017-018-044>046-055-056-031400-
CENTRAL


CITY           SKY/WX    TMP DP  RH WIND       PRES   REMARKS
FULTON         CLOUDY    36  26  67 NW14      30.08R WCI  27
SYRACUSE       CLOUDY    35  28  75 W10       30.07R WCI  27
ROME           CLOUDY    34  33  96 W9        30.05R WCI  27
ELMIRA         CLOUDY    38  28  67 NW10G16   30.09R WCI  31
BINGHAMTON     CLOUDY    30  27  88 NW9       30.02S WCI  22
MONTICELLO     CLOUDY    34  25  69 NW17G26   29.99R WCI  23
$$

NYZ026>034-041>043-087-031400-
NORTH


CITY           SKY/WX    TMP DP  RH WIND       PRES   REMARKS
WATERTOWN      CLOUDY    35  26  69 NW9       30.05R WCI  28
FORT DRUM      NOT AVBL
OGDENSBURG     CLOUDY    35  28  77 NW12G17   30.01R WCI  27
MASSENA        CLOUDY    35  27  72 W12       30.00R WCI  27
SARANAC LAKE   LGT SNOW  28  25  88 W7        29.89R VSB 1   WCI  21
PLATTSBURGH    CLOUDY    36  28  73 NW8       29.92R WCI  30
$$

NYZ001>004-010>016-019>021-085-031400-
WEST


CITY           SKY/WX    TMP DP  RH WIND       PRES   REMARKS
NIAGARA FALLS  PTCLDY    34  29  82 W8        30.16R WCI  27
BUFFALO        MOCLDY    35  30  82 W8        30.15S WCI  29
DUNKIRK        CLOUDY    40  32  73 NW13G22   30.19R WCI  32
JAMESTOWN      CLOUDY    36  28  75 NW14G20   30.13S WCI  27
WELLSVILLE     CLOUDY    34  29  82 NW15G22   30.09R WCI  24
ROCHESTER      CLOUDY    38  30  73 NW9       30.13R WCI  31
PENN YAN       CLOUDY    36  29  75 W9G17     30.10R WCI  29
$$

             KEY
       WCI = WIND CHILL INDEX
       VSB = VISIBILITY
       HX  = HEAT INDEX
$$




USA.gov is the U.S. government's official web portal to all federal, state and local government web resources and services.